owner,sensor,date,latitude,longitude,sea_surface_height_above_sea_level,qcFlag 
COMPS,ioos:station:USF.COMPS:ARP:1,2013-01-01T00:00:00Z,28.4330,-82.6670,-0.141,1111122 
COMPS,ioos:station:USF.COMPS:ARP:1,2013-01-01T00:06:00Z,28.4330,-82.6670,-0.154,1111122 
COMPS,ioos:station:USF.COMPS:ARP:1,2013-01-01T00:12:00Z,28.4330,-82.6670,-0.167,1111122 
COMPS,ioos:station:USF.COMPS:ARP:1,2013-01-01T00:18:00Z,28.4330,-82.6670,-0.181,1111122 
COMPS,ioos:station:USF.COMPS:ARP:1,2013-01-01T00:24:00Z,28.4330,-82.6670,-0.191,1111122 
COMPS,ioos:station:USF.COMPS:ARP:1,2013-01-01T00:30:00Z,28.4330,-82.6670,-0.203,1111122 
COMPS,ioos:station:USF.COMPS:ARP:1,2013-01-01T00:36:00Z,28.4330,-82.6670,-0.213,1111122 
COMPS,ioos:station:USF.COMPS:ARP:1,2013-01-01T00:42:00Z,28.4330,-82.6670,-0.225,1111122 
COMPS,ioos:station:USF.COMPS:ARP:1,2013-01-01T00:48:00Z,28.4330,-82.6670,-0.236,1111122 
COMPS,ioos:station:USF.COMPS:ARP:1,2013-01-01T00:54:00Z,28.4330,-82.6670,-0.247,1111122 
COMPS,ioos:station:USF.COMPS:ARP:1,2013-01-01T01:00:00Z,28.4330,-82.6670,-0.258,1111122 
COMPS,ioos:station:USF.COMPS:ARP:1,2013-01-01T01:06:00Z,28.4330,-82.6670,-0.267,1111122 
COMPS,ioos:station:USF.COMPS:ARP:1,2013-01-01T01:12:00Z,28.4330,-82.6670,-0.278,1111122 
COMPS,ioos:station:USF.COMPS:ARP:1,2013-01-01T01:18:00Z,28.4330,-82.6670,-0.289,1111122 
COMPS,ioos:station:USF.COMPS:ARP:1,2013-01-01T01:24:00Z,28.4330,-82.6670,-0.298,1111122 
COMPS,ioos:station:USF.COMPS:ARP:1,2013-01-01T01:30:00Z,28.4330,-82.6670,-0.307,1111122 
COMPS,ioos:station:USF.COMPS:ARP:1,2013-01-01T01:36:00Z,28.4330,-82.6670,-0.313,1111122 
COMPS,ioos:station:USF.COMPS:ARP:1,2013-01-01T01:42:00Z,28.4330,-82.6670,-0.321,1111122 
COMPS,ioos:station:USF.COMPS:ARP:1,2013-01-01T01:48:00Z,28.4330,-82.6670,-0.33,1111122 
COMPS,ioos:station:USF.COMPS:ARP:1,2013-01-01T01:54:00Z,28.4330,-82.6670,-0.336,1111122 
COMPS,ioos:station:USF.COMPS:ARP:1,2013-01-01T02:00:00Z,28.4330,-82.6670,-0.345,1111122 
COMPS,ioos:station:USF.COMPS:ARP:1,2013-01-01T02:06:00Z,28.4330,-82.6670,-0.355,1111122 
COMPS,ioos:station:USF.COMPS:ARP:1,2013-01-01T02:12:00Z,28.4330,-82.6670,-0.362,1111122 
COMPS,ioos:station:USF.COMPS:ARP:1,2013-01-01T02:18:00Z,28.4330,-82.6670,-0.368,1111122 
COMPS,ioos:station:USF.COMPS:ARP:1,2013-01-01T02:24:00Z,28.4330,-82.6670,-0.374,1111122 
COMPS,ioos:station:USF.COMPS:ARP:1,2013-01-01T02:30:00Z,28.4330,-82.6670,-0.378,1111122 
COMPS,ioos:station:USF.COMPS:ARP:1,2013-01-01T02:36:00Z,28.4330,-82.6670,-0.377,1111122 
COMPS,ioos:station:USF.COMPS:ARP:1,2013-01-01T02:42:00Z,28.4330,-82.6670,-0.376,1111122 
COMPS,ioos:station:USF.COMPS:ARP:1,2013-01-01T02:48:00Z,28.4330,-82.6670,-0.377,1111122 
COMPS,ioos:station:USF.COMPS:ARP:1,2013-01-01T02:54:00Z,28.4330,-82.6670,-0.372,1111122 
COMPS,ioos:station:USF.COMPS:ARP:1,2013-01-01T03:00:00Z,28.4330,-82.6670,-0.364,1111122 
COMPS,ioos:station:USF.COMPS:ARP:1,2013-01-01T03:06:00Z,28.4330,-82.6670,-0.355,1111122 
COMPS,ioos:station:USF.COMPS:ARP:1,2013-01-01T03:12:00Z,28.4330,-82.6670,-0.343,1111122 
COMPS,ioos:station:USF.COMPS:ARP:1,2013-01-01T03:18:00Z,28.4330,-82.6670,-0.327,1111122 
COMPS,ioos:station:USF.COMPS:ARP:1,2013-01-01T03:24:00Z,28.4330,-82.6670,-0.314,1111122 
COMPS,ioos:station:USF.COMPS:ARP:1,2013-01-01T03:30:00Z,28.4330,-82.6670,-0.299,1111122 
COMPS,ioos:station:USF.COMPS:ARP:1,2013-01-01T03:36:00Z,28.4330,-82.6670,-0.284,1111122 
COMPS,ioos:station:USF.COMPS:ARP:1,2013-01-01T03:42:00Z,28.4330,-82.6670,-0.268,1111122 
COMPS,ioos:station:USF.COMPS:ARP:1,2013-01-01T03:48:00Z,28.4330,-82.6670,-0.25,1111122 
COMPS,ioos:station:USF.COMPS:ARP:1,2013-01-01T03:54:00Z,28.4330,-82.6670,-0.234,1111122 
COMPS,ioos:station:USF.COMPS:ARP:1,2013-01-01T04:00:00Z,28.4330,-82.6670,-0.218,1111122 
COMPS,ioos:station:USF.COMPS:ARP:1,2013-01-01T04:06:00Z,28.4330,-82.6670,-0.202,1111122 
COMPS,ioos:station:USF.COMPS:ARP:1,2013-01-01T04:12:00Z,28.4330,-82.6670,-0.186,1111122 
COMPS,ioos:station:USF.COMPS:ARP:1,2013-01-01T04:18:00Z,28.4330,-82.6670,-0.172,1111122 
COMPS,ioos:station:USF.COMPS:ARP:1,2013-01-01T04:24:00Z,28.4330,-82.6670,-0.153,1111122 
COMPS,ioos:station:USF.COMPS:ARP:1,2013-01-01T04:30:00Z,28.4330,-82.6670,-0.136,1111122 
COMPS,ioos:station:USF.COMPS:ARP:1,2013-01-01T04:36:00Z,28.4330,-82.6670,-0.119,1111122 
COMPS,ioos:station:USF.COMPS:ARP:1,2013-01-01T04:42:00Z,28.4330,-82.6670,-0.099,1111122 
COMPS,ioos:station:USF.COMPS:ARP:1,2013-01-01T04:48:00Z,28.4330,-82.6670,-0.081,1111122 
COMPS,ioos:station:USF.COMPS:ARP:1,2013-01-01T04:54:00Z,28.4330,-82.6670,-0.061,1111122 
COMPS,ioos:station:USF.COMPS:ARP:1,2013-01-01T05:00:00Z,28.4330,-82.6670,-0.038,1111122 
COMPS,ioos:station:USF.COMPS:ARP:1,2013-01-01T05:06:00Z,28.4330,-82.6670,-0.017,1111122 
COMPS,ioos:station:USF.COMPS:ARP:1,2013-01-01T05:12:00Z,28.4330,-82.6670,0.005,1111122 
COMPS,ioos:station:USF.COMPS:ARP:1,2013-01-01T05:18:00Z,28.4330,-82.6670,0.027,1111122 
COMPS,ioos:station:USF.COMPS:ARP:1,2013-01-01T05:24:00Z,28.4330,-82.6670,0.048,1111122 
COMPS,ioos:station:USF.COMPS:ARP:1,2013-01-01T05:30:00Z,28.4330,-82.6670,0.07,1111122 
COMPS,ioos:station:USF.COMPS:ARP:1,2013-01-01T05:36:00Z,28.4330,-82.6670,0.091,1111122 
COMPS,ioos:station:USF.COMPS:ARP:1,2013-01-01T05:42:00Z,28.4330,-82.6670,0.112,1111122 
COMPS,ioos:station:USF.COMPS:ARP:1,2013-01-01T05:48:00Z,28.4330,-82.6670,0.132,1111122 
COMPS,ioos:station:USF.COMPS:ARP:1,2013-01-01T05:54:00Z,28.4330,-82.6670,0.154,1111122 
COMPS,ioos:station:USF.COMPS:ARP:1,2013-01-01T06:00:00Z,28.4330,-82.6670,0.172,1111122 
COMPS,ioos:station:USF.COMPS:ARP:1,2013-01-01T06:06:00Z,28.4330,-82.6670,0.19,1111122 
COMPS,ioos:station:USF.COMPS:ARP:1,2013-01-01T06:12:00Z,28.4330,-82.6670,0.207,1111122 
COMPS,ioos:station:USF.COMPS:ARP:1,2013-01-01T06:18:00Z,28.4330,-82.6670,0.223,1111122 
COMPS,ioos:station:USF.COMPS:ARP:1,2013-01-01T06:24:00Z,28.4330,-82.6670,0.238,1111122 
COMPS,ioos:station:USF.COMPS:ARP:1,2013-01-01T06:30:00Z,28.4330,-82.6670,0.253,1111122 
COMPS,ioos:station:USF.COMPS:ARP:1,2013-01-01T06:36:00Z,28.4330,-82.6670,0.263,1111122 
COMPS,ioos:station:USF.COMPS:ARP:1,2013-01-01T06:42:00Z,28.4330,-82.6670,0.274,1111122 
COMPS,ioos:station:USF.COMPS:ARP:1,2013-01-01T06:48:00Z,28.4330,-82.6670,0.286,1111122 
COMPS,ioos:station:USF.COMPS:ARP:1,2013-01-01T06:54:00Z,28.4330,-82.6670,0.297,1111122 
COMPS,ioos:station:USF.COMPS:ARP:1,2013-01-01T07:00:00Z,28.4330,-82.6670,0.305,1111122 
COMPS,ioos:station:USF.COMPS:ARP:1,2013-01-01T07:06:00Z,28.4330,-82.6670,0.311,1111122 
COMPS,ioos:station:USF.COMPS:ARP:1,2013-01-01T07:12:00Z,28.4330,-82.6670,0.32,1111122 
COMPS,ioos:station:USF.COMPS:ARP:1,2013-01-01T07:18:00Z,28.4330,-82.6670,0.328,1111122 
COMPS,ioos:station:USF.COMPS:ARP:1,2013-01-01T07:24:00Z,28.4330,-82.6670,0.324,1111122 
COMPS,ioos:station:USF.COMPS:ARP:1,2013-01-01T07:30:00Z,28.4330,-82.6670,0.327,1111122 
COMPS,ioos:station:USF.COMPS:ARP:1,2013-01-01T07:36:00Z,28.4330,-82.6670,0.327,1111122 
COMPS,ioos:station:USF.COMPS:ARP:1,2013-01-01T07:42:00Z,28.4330,-82.6670,0.325,1111122 
COMPS,ioos:station:USF.COMPS:ARP:1,2013-01-01T07:48:00Z,28.4330,-82.6670,0.322,1111122 
COMPS,ioos:station:USF.COMPS:ARP:1,2013-01-01T07:54:00Z,28.4330,-82.6670,0.31,1111122 
COMPS,ioos:station:USF.COMPS:ARP:1,2013-01-01T08:00:00Z,28.4330,-82.6670,0.306,1111122 
COMPS,ioos:station:USF.COMPS:ARP:1,2013-01-01T08:06:00Z,28.4330,-82.6670,0.309,1111122 
COMPS,ioos:station:USF.COMPS:ARP:1,2013-01-01T08:12:00Z,28.4330,-82.6670,0.298,1111122 
COMPS,ioos:station:USF.COMPS:ARP:1,2013-01-01T08:18:00Z,28.4330,-82.6670,0.285,1111122 
COMPS,ioos:station:USF.COMPS:ARP:1,2013-01-01T08:24:00Z,28.4330,-82.6670,0.276,1111122 
COMPS,ioos:station:USF.COMPS:ARP:1,2013-01-01T08:30:00Z,28.4330,-82.6670,0.25,1111122 
COMPS,ioos:station:USF.COMPS:ARP:1,2013-01-01T08:36:00Z,28.4330,-82.6670,0.226,1111122 
COMPS,ioos:station:USF.COMPS:ARP:1,2013-01-01T08:42:00Z,28.4330,-82.6670,0.212,1111122 
COMPS,ioos:station:USF.COMPS:ARP:1,2013-01-01T08:48:00Z,28.4330,-82.6670,0.193,1111122 
COMPS,ioos:station:USF.COMPS:ARP:1,2013-01-01T08:54:00Z,28.4330,-82.6670,0.184,1111122 
COMPS,ioos:station:USF.COMPS:ARP:1,2013-01-01T09:00:00Z,28.4330,-82.6670,0.172,1111122 
COMPS,ioos:station:USF.COMPS:ARP:1,2013-01-01T09:06:00Z,28.4330,-82.6670,0.165,1111122 
COMPS,ioos:station:USF.COMPS:ARP:1,2013-01-01T09:12:00Z,28.4330,-82.6670,0.154,1111122 
COMPS,ioos:station:USF.COMPS:ARP:1,2013-01-01T09:18:00Z,28.4330,-82.6670,0.134,1111122 
COMPS,ioos:station:USF.COMPS:ARP:1,2013-01-01T09:24:00Z,28.4330,-82.6670,0.122,1111122 
COMPS,ioos:station:USF.COMPS:ARP:1,2013-01-01T09:30:00Z,28.4330,-82.6670,0.114,1111122 
COMPS,ioos:station:USF.COMPS:ARP:1,2013-01-01T09:36:00Z,28.4330,-82.6670,0.093,1111122 
COMPS,ioos:station:USF.COMPS:ARP:1,2013-01-01T09:42:00Z,28.4330,-82.6670,0.082,1111122 
COMPS,ioos:station:USF.COMPS:ARP:1,2013-01-01T09:48:00Z,28.4330,-82.6670,0.062,1111122 
COMPS,ioos:station:USF.COMPS:ARP:1,2013-01-01T09:54:00Z,28.4330,-82.6670,0.049,1111122 
COMPS,ioos:station:USF.COMPS:ARP:1,2013-01-01T10:00:00Z,28.4330,-82.6670,0.035,1111122 
COMPS,ioos:station:USF.COMPS:ARP:1,2013-01-01T10:06:00Z,28.4330,-82.6670,0.021,1111122 
COMPS,ioos:station:USF.COMPS:ARP:1,2013-01-01T10:12:00Z,28.4330,-82.6670,0.008,1111122 
COMPS,ioos:station:USF.COMPS:ARP:1,2013-01-01T10:18:00Z,28.4330,-82.6670,-0.006,1111122 
COMPS,ioos:station:USF.COMPS:ARP:1,2013-01-01T10:24:00Z,28.4330,-82.6670,-0.02,1111122 
COMPS,ioos:station:USF.COMPS:ARP:1,2013-01-01T10:30:00Z,28.4330,-82.6670,-0.035,1111122 
COMPS,ioos:station:USF.COMPS:ARP:1,2013-01-01T10:36:00Z,28.4330,-82.6670,-0.051,1111122 
COMPS,ioos:station:USF.COMPS:ARP:1,2013-01-01T10:42:00Z,28.4330,-82.6670,-0.063,1111122 
COMPS,ioos:station:USF.COMPS:ARP:1,2013-01-01T10:48:00Z,28.4330,-82.6670,-0.077,1111122 
COMPS,ioos:station:USF.COMPS:ARP:1,2013-01-01T10:54:00Z,28.4330,-82.6670,-0.09,1111122 
COMPS,ioos:station:USF.COMPS:ARP:1,2013-01-01T11:00:00Z,28.4330,-82.6670,-0.105,1111122 
COMPS,ioos:station:USF.COMPS:ARP:1,2013-01-01T11:06:00Z,28.4330,-82.6670,-0.119,1111122 
COMPS,ioos:station:USF.COMPS:ARP:1,2013-01-01T11:12:00Z,28.4330,-82.6670,-0.134,1111122 
COMPS,ioos:station:USF.COMPS:ARP:1,2013-01-01T11:18:00Z,28.4330,-82.6670,-0.148,1111122 
COMPS,ioos:station:USF.COMPS:ARP:1,2013-01-01T11:24:00Z,28.4330,-82.6670,-0.162,1111122 
COMPS,ioos:station:USF.COMPS:ARP:1,2013-01-01T11:30:00Z,28.4330,-82.6670,-0.178,1111122 
COMPS,ioos:station:USF.COMPS:ARP:1,2013-01-01T11:36:00Z,28.4330,-82.6670,-0.192,1111122 
COMPS,ioos:station:USF.COMPS:ARP:1,2013-01-01T11:42:00Z,28.4330,-82.6670,-0.205,1111122 
COMPS,ioos:station:USF.COMPS:ARP:1,2013-01-01T11:48:00Z,28.4330,-82.6670,-0.222,1111122 
COMPS,ioos:station:USF.COMPS:ARP:1,2013-01-01T11:54:00Z,28.4330,-82.6670,-0.236,1111122 
COMPS,ioos:station:USF.COMPS:ARP:1,2013-01-01T12:00:00Z,28.4330,-82.6670,-0.249,1111122 
COMPS,ioos:station:USF.COMPS:ARP:1,2013-01-01T12:06:00Z,28.4330,-82.6670,-0.263,1111122 
COMPS,ioos:station:USF.COMPS:ARP:1,2013-01-01T12:12:00Z,28.4330,-82.6670,-0.277,1111122 
COMPS,ioos:station:USF.COMPS:ARP:1,2013-01-01T12:18:00Z,28.4330,-82.6670,-0.291,1111122 
COMPS,ioos:station:USF.COMPS:ARP:1,2013-01-01T12:24:00Z,28.4330,-82.6670,-0.304,1111122 
COMPS,ioos:station:USF.COMPS:ARP:1,2013-01-01T12:30:00Z,28.4330,-82.6670,-0.318,1111122 
COMPS,ioos:station:USF.COMPS:ARP:1,2013-01-01T12:36:00Z,28.4330,-82.6670,-0.331,1111122 
COMPS,ioos:station:USF.COMPS:ARP:1,2013-01-01T12:42:00Z,28.4330,-82.6670,-0.344,1111122 
COMPS,ioos:station:USF.COMPS:ARP:1,2013-01-01T12:48:00Z,28.4330,-82.6670,-0.356,1111122 
COMPS,ioos:station:USF.COMPS:ARP:1,2013-01-01T12:54:00Z,28.4330,-82.6670,-0.368,1111122 
COMPS,ioos:station:USF.COMPS:ARP:1,2013-01-01T13:00:00Z,28.4330,-82.6670,-0.379,1111122 
COMPS,ioos:station:USF.COMPS:ARP:1,2013-01-01T13:06:00Z,28.4330,-82.6670,-0.391,1111122 
COMPS,ioos:station:USF.COMPS:ARP:1,2013-01-01T13:12:00Z,28.4330,-82.6670,-0.401,1111122 
COMPS,ioos:station:USF.COMPS:ARP:1,2013-01-01T13:18:00Z,28.4330,-82.6670,-0.412,1111122 
COMPS,ioos:station:USF.COMPS:ARP:1,2013-01-01T13:24:00Z,28.4330,-82.6670,-0.423,1111122 
COMPS,ioos:station:USF.COMPS:ARP:1,2013-01-01T13:30:00Z,28.4330,-82.6670,-0.432,1111122 
COMPS,ioos:station:USF.COMPS:ARP:1,2013-01-01T13:36:00Z,28.4330,-82.6670,-0.438,1111122 
COMPS,ioos:station:USF.COMPS:ARP:1,2013-01-01T13:42:00Z,28.4330,-82.6670,-0.445,1111122 
COMPS,ioos:station:USF.COMPS:ARP:1,2013-01-01T13:48:00Z,28.4330,-82.6670,-0.454,1111122 
COMPS,ioos:station:USF.COMPS:ARP:1,2013-01-01T13:54:00Z,28.4330,-82.6670,-0.464,1111122 
COMPS,ioos:station:USF.COMPS:ARP:1,2013-01-01T14:00:00Z,28.4330,-82.6670,-0.474,1111122 
COMPS,ioos:station:USF.COMPS:ARP:1,2013-01-01T14:06:00Z,28.4330,-82.6670,-0.484,1111122 
COMPS,ioos:station:USF.COMPS:ARP:1,2013-01-01T14:12:00Z,28.4330,-82.6670,-0.492,1111122 
COMPS,ioos:station:USF.COMPS:ARP:1,2013-01-01T14:18:00Z,28.4330,-82.6670,-0.499,1111122 
COMPS,ioos:station:USF.COMPS:ARP:1,2013-01-01T14:24:00Z,28.4330,-82.6670,-0.506,1111122 
COMPS,ioos:station:USF.COMPS:ARP:1,2013-01-01T14:30:00Z,28.4330,-82.6670,-0.513,1111122 
COMPS,ioos:station:USF.COMPS:ARP:1,2013-01-01T14:36:00Z,28.4330,-82.6670,-0.518,1111122 
COMPS,ioos:station:USF.COMPS:ARP:1,2013-01-01T14:42:00Z,28.4330,-82.6670,-0.527,1111122 
COMPS,ioos:station:USF.COMPS:ARP:1,2013-01-01T14:48:00Z,28.4330,-82.6670,-0.532,1111122 
COMPS,ioos:station:USF.COMPS:ARP:1,2013-01-01T14:54:00Z,28.4330,-82.6670,-0.538,1111122 
COMPS,ioos:station:USF.COMPS:ARP:1,2013-01-01T15:00:00Z,28.4330,-82.6670,-0.544,1111122 
COMPS,ioos:station:USF.COMPS:ARP:1,2013-01-01T15:06:00Z,28.4330,-82.6670,-0.551,1111122 
COMPS,ioos:station:USF.COMPS:ARP:1,2013-01-01T15:12:00Z,28.4330,-82.6670,-0.557,1111122 
COMPS,ioos:station:USF.COMPS:ARP:1,2013-01-01T15:18:00Z,28.4330,-82.6670,-0.564,1111122 
COMPS,ioos:station:USF.COMPS:ARP:1,2013-01-01T15:24:00Z,28.4330,-82.6670,-0.569,1111122 
COMPS,ioos:station:USF.COMPS:ARP:1,2013-01-01T15:30:00Z,28.4330,-82.6670,-0.574,1111122 
COMPS,ioos:station:USF.COMPS:ARP:1,2013-01-01T15:36:00Z,28.4330,-82.6670,-0.576,1111122 
COMPS,ioos:station:USF.COMPS:ARP:1,2013-01-01T15:42:00Z,28.4330,-82.6670,-0.578,1111122 
COMPS,ioos:station:USF.COMPS:ARP:1,2013-01-01T15:48:00Z,28.4330,-82.6670,-0.581,1111122 
COMPS,ioos:station:USF.COMPS:ARP:1,2013-01-01T15:54:00Z,28.4330,-82.6670,-0.581,1111122 
COMPS,ioos:station:USF.COMPS:ARP:1,2013-01-01T16:00:00Z,28.4330,-82.6670,-0.58,1111122 
COMPS,ioos:station:USF.COMPS:ARP:1,2013-01-01T16:06:00Z,28.4330,-82.6670,-0.576,1111122 
COMPS,ioos:station:USF.COMPS:ARP:1,2013-01-01T16:12:00Z,28.4330,-82.6670,-0.57,1111122 
COMPS,ioos:station:USF.COMPS:ARP:1,2013-01-01T16:18:00Z,28.4330,-82.6670,-0.567,1111122 
COMPS,ioos:station:USF.COMPS:ARP:1,2013-01-01T16:24:00Z,28.4330,-82.6670,-0.562,1111122 
COMPS,ioos:station:USF.COMPS:ARP:1,2013-01-01T16:30:00Z,28.4330,-82.6670,-0.555,1111122 
COMPS,ioos:station:USF.COMPS:ARP:1,2013-01-01T16:36:00Z,28.4330,-82.6670,-0.547,1111122 
COMPS,ioos:station:USF.COMPS:ARP:1,2013-01-01T16:42:00Z,28.4330,-82.6670,-0.536,1111122 
COMPS,ioos:station:USF.COMPS:ARP:1,2013-01-01T16:48:00Z,28.4330,-82.6670,-0.525,1111122 
COMPS,ioos:station:USF.COMPS:ARP:1,2013-01-01T16:54:00Z,28.4330,-82.6670,-0.514,1111122 
COMPS,ioos:station:USF.COMPS:ARP:1,2013-01-01T17:00:00Z,28.4330,-82.6670,-0.5,1111122 
COMPS,ioos:station:USF.COMPS:ARP:1,2013-01-01T17:06:00Z,28.4330,-82.6670,-0.484,1111122 
COMPS,ioos:station:USF.COMPS:ARP:1,2013-01-01T17:12:00Z,28.4330,-82.6670,-0.466,1111122 
COMPS,ioos:station:USF.COMPS:ARP:1,2013-01-01T17:18:00Z,28.4330,-82.6670,-0.451,1111122 
COMPS,ioos:station:USF.COMPS:ARP:1,2013-01-01T17:24:00Z,28.4330,-82.6670,-0.436,1111122 
COMPS,ioos:station:USF.COMPS:ARP:1,2013-01-01T17:30:00Z,28.4330,-82.6670,-0.415,1111122 
COMPS,ioos:station:USF.COMPS:ARP:1,2013-01-01T17:36:00Z,28.4330,-82.6670,-0.392,1111122 
COMPS,ioos:station:USF.COMPS:ARP:1,2013-01-01T17:42:00Z,28.4330,-82.6670,-0.368,1111122 
COMPS,ioos:station:USF.COMPS:ARP:1,2013-01-01T17:48:00Z,28.4330,-82.6670,-0.344,1111122 
COMPS,ioos:station:USF.COMPS:ARP:1,2013-01-01T17:54:00Z,28.4330,-82.6670,-0.315,1111122 
COMPS,ioos:station:USF.COMPS:ARP:1,2013-01-01T18:00:00Z,28.4330,-82.6670,-0.285,1111122 
COMPS,ioos:station:USF.COMPS:ARP:1,2013-01-01T18:06:00Z,28.4330,-82.6670,-0.254,1111122 
COMPS,ioos:station:USF.COMPS:ARP:1,2013-01-01T18:12:00Z,28.4330,-82.6670,-0.223,1111122 
COMPS,ioos:station:USF.COMPS:ARP:1,2013-01-01T18:18:00Z,28.4330,-82.6670,-0.188,1111122 
COMPS,ioos:station:USF.COMPS:ARP:1,2013-01-01T18:24:00Z,28.4330,-82.6670,-0.155,1111122 
COMPS,ioos:station:USF.COMPS:ARP:1,2013-01-01T18:30:00Z,28.4330,-82.6670,-0.123,1111122 
COMPS,ioos:station:USF.COMPS:ARP:1,2013-01-01T18:36:00Z,28.4330,-82.6670,-0.088,1111122 
COMPS,ioos:station:USF.COMPS:ARP:1,2013-01-01T18:42:00Z,28.4330,-82.6670,-0.055,1111122 
COMPS,ioos:station:USF.COMPS:ARP:1,2013-01-01T18:48:00Z,28.4330,-82.6670,-0.024,1111122 
COMPS,ioos:station:USF.COMPS:ARP:1,2013-01-01T18:54:00Z,28.4330,-82.6670,0.006,1111122 
COMPS,ioos:station:USF.COMPS:ARP:1,2013-01-01T19:00:00Z,28.4330,-82.6670,0.036,1111122 
COMPS,ioos:station:USF.COMPS:ARP:1,2013-01-01T19:06:00Z,28.4330,-82.6670,0.065,1111122 
COMPS,ioos:station:USF.COMPS:ARP:1,2013-01-01T19:12:00Z,28.4330,-82.6670,0.095,1111122 
COMPS,ioos:station:USF.COMPS:ARP:1,2013-01-01T19:18:00Z,28.4330,-82.6670,0.123,1111122 
COMPS,ioos:station:USF.COMPS:ARP:1,2013-01-01T19:24:00Z,28.4330,-82.6670,0.152,1111122 
COMPS,ioos:station:USF.COMPS:ARP:1,2013-01-01T19:30:00Z,28.4330,-82.6670,0.177,1111122 
COMPS,ioos:station:USF.COMPS:ARP:1,2013-01-01T19:36:00Z,28.4330,-82.6670,0.202,1111122 
COMPS,ioos:station:USF.COMPS:ARP:1,2013-01-01T19:42:00Z,28.4330,-82.6670,0.228,1111122 
COMPS,ioos:station:USF.COMPS:ARP:1,2013-01-01T19:48:00Z,28.4330,-82.6670,0.252,1111122 
COMPS,ioos:station:USF.COMPS:ARP:1,2013-01-01T19:54:00Z,28.4330,-82.6670,0.272,1111122 
COMPS,ioos:station:USF.COMPS:ARP:1,2013-01-01T20:00:00Z,28.4330,-82.6670,0.292,1111122 
COMPS,ioos:station:USF.COMPS:ARP:1,2013-01-01T20:06:00Z,28.4330,-82.6670,0.311,1111122 
COMPS,ioos:station:USF.COMPS:ARP:1,2013-01-01T20:12:00Z,28.4330,-82.6670,0.323,1111122 
COMPS,ioos:station:USF.COMPS:ARP:1,2013-01-01T20:18:00Z,28.4330,-82.6670,0.341,1111122 
COMPS,ioos:station:USF.COMPS:ARP:1,2013-01-01T20:24:00Z,28.4330,-82.6670,0.357,1111122 
COMPS,ioos:station:USF.COMPS:ARP:1,2013-01-01T20:30:00Z,28.4330,-82.6670,0.368,1111122 
COMPS,ioos:station:USF.COMPS:ARP:1,2013-01-01T20:36:00Z,28.4330,-82.6670,0.378,1111122 
COMPS,ioos:station:USF.COMPS:ARP:1,2013-01-01T20:42:00Z,28.4330,-82.6670,0.388,1111122 
COMPS,ioos:station:USF.COMPS:ARP:1,2013-01-01T20:48:00Z,28.4330,-82.6670,0.388,1111122 
COMPS,ioos:station:USF.COMPS:ARP:1,2013-01-01T20:54:00Z,28.4330,-82.6670,0.393,1111122 
COMPS,ioos:station:USF.COMPS:ARP:1,2013-01-01T21:00:00Z,28.4330,-82.6670,0.396,1111122 
COMPS,ioos:station:USF.COMPS:ARP:1,2013-01-01T21:06:00Z,28.4330,-82.6670,0.396,1111122 
COMPS,ioos:station:USF.COMPS:ARP:1,2013-01-01T21:12:00Z,28.4330,-82.6670,0.397,1111122 
COMPS,ioos:station:USF.COMPS:ARP:1,2013-01-01T21:18:00Z,28.4330,-82.6670,0.396,1111122 
COMPS,ioos:station:USF.COMPS:ARP:1,2013-01-01T21:24:00Z,28.4330,-82.6670,0.396,1111122 
COMPS,ioos:station:USF.COMPS:ARP:1,2013-01-01T21:30:00Z,28.4330,-82.6670,0.383,1111122 
COMPS,ioos:station:USF.COMPS:ARP:1,2013-01-01T21:36:00Z,28.4330,-82.6670,0.364,1111122 
COMPS,ioos:station:USF.COMPS:ARP:1,2013-01-01T21:42:00Z,28.4330,-82.6670,0.344,1111122 
COMPS,ioos:station:USF.COMPS:ARP:1,2013-01-01T21:48:00Z,28.4330,-82.6670,0.324,1111122 
COMPS,ioos:station:USF.COMPS:ARP:1,2013-01-01T21:54:00Z,28.4330,-82.6670,0.306,1111122 
COMPS,ioos:station:USF.COMPS:ARP:1,2013-01-01T22:00:00Z,28.4330,-82.6670,0.277,1111122 
COMPS,ioos:station:USF.COMPS:ARP:1,2013-01-01T22:06:00Z,28.4330,-82.6670,0.26,1111122 
COMPS,ioos:station:USF.COMPS:ARP:1,2013-01-01T22:12:00Z,28.4330,-82.6670,0.254,1111122 
COMPS,ioos:station:USF.COMPS:ARP:1,2013-01-01T22:18:00Z,28.4330,-82.6670,0.232,1111122 
COMPS,ioos:station:USF.COMPS:ARP:1,2013-01-01T22:24:00Z,28.4330,-82.6670,0.224,1111122 
COMPS,ioos:station:USF.COMPS:ARP:1,2013-01-01T22:30:00Z,28.4330,-82.6670,0.212,1111122 
COMPS,ioos:station:USF.COMPS:ARP:1,2013-01-01T22:36:00Z,28.4330,-82.6670,0.198,1111122 
COMPS,ioos:station:USF.COMPS:ARP:1,2013-01-01T22:42:00Z,28.4330,-82.6670,0.185,1111122 
COMPS,ioos:station:USF.COMPS:ARP:1,2013-01-01T22:48:00Z,28.4330,-82.6670,0.168,1111122 
COMPS,ioos:station:USF.COMPS:ARP:1,2013-01-01T22:54:00Z,28.4330,-82.6670,0.155,1111122 
COMPS,ioos:station:USF.COMPS:ARP:1,2013-01-01T23:00:00Z,28.4330,-82.6670,0.14,1111122 
COMPS,ioos:station:USF.COMPS:ARP:1,2013-01-01T23:06:00Z,28.4330,-82.6670,0.124,1111122 
COMPS,ioos:station:USF.COMPS:ARP:1,2013-01-01T23:12:00Z,28.4330,-82.6670,0.106,1111122 
COMPS,ioos:station:USF.COMPS:ARP:1,2013-01-01T23:18:00Z,28.4330,-82.6670,0.085,1111122 
COMPS,ioos:station:USF.COMPS:ARP:1,2013-01-01T23:24:00Z,28.4330,-82.6670,0.068,1111122 
COMPS,ioos:station:USF.COMPS:ARP:1,2013-01-01T23:30:00Z,28.4330,-82.6670,0.052,1111122 
COMPS,ioos:station:USF.COMPS:ARP:1,2013-01-01T23:36:00Z,28.4330,-82.6670,0.037,1111122 
COMPS,ioos:station:USF.COMPS:ARP:1,2013-01-01T23:42:00Z,28.4330,-82.6670,0.02,1111122 
COMPS,ioos:station:USF.COMPS:ARP:1,2013-01-01T23:48:00Z,28.4330,-82.6670,0.004,1111122 
COMPS,ioos:station:USF.COMPS:ARP:1,2013-01-01T23:54:00Z,28.4330,-82.6670,-0.011,1111122 
COMPS,ioos:station:USF.COMPS:ARP:1,2013-01-02T00:00:00Z,28.4330,-82.6670,-0.024,1111122 
COMPS,ioos:station:USF.COMPS:ARP:1,2013-01-02T00:06:00Z,28.4330,-82.6670,-0.04,1111122 
COMPS,ioos:station:USF.COMPS:ARP:1,2013-01-02T00:12:00Z,28.4330,-82.6670,-0.051,1111122 
COMPS,ioos:station:USF.COMPS:ARP:1,2013-01-02T00:18:00Z,28.4330,-82.6670,-0.062,1111122 
COMPS,ioos:station:USF.COMPS:ARP:1,2013-01-02T00:24:00Z,28.4330,-82.6670,-0.076,1111122 
COMPS,ioos:station:USF.COMPS:ARP:1,2013-01-02T00:30:00Z,28.4330,-82.6670,-0.089,1111122 
COMPS,ioos:station:USF.COMPS:ARP:1,2013-01-02T00:36:00Z,28.4330,-82.6670,-0.104,1111122 
COMPS,ioos:station:USF.COMPS:ARP:1,2013-01-02T00:42:00Z,28.4330,-82.6670,-0.118,1111122 
COMPS,ioos:station:USF.COMPS:ARP:1,2013-01-02T00:48:00Z,28.4330,-82.6670,-0.133,1111122 
COMPS,ioos:station:USF.COMPS:ARP:1,2013-01-02T00:54:00Z,28.4330,-82.6670,-0.147,1111122 
COMPS,ioos:station:USF.COMPS:ARP:1,2013-01-02T01:00:00Z,28.4330,-82.6670,-0.162,1111122 
COMPS,ioos:station:USF.COMPS:ARP:1,2013-01-02T01:06:00Z,28.4330,-82.6670,-0.177,1111122 
COMPS,ioos:station:USF.COMPS:ARP:1,2013-01-02T01:12:00Z,28.4330,-82.6670,-0.193,1111122 
COMPS,ioos:station:USF.COMPS:ARP:1,2013-01-02T01:18:00Z,28.4330,-82.6670,-0.205,1111122 
COMPS,ioos:station:USF.COMPS:ARP:1,2013-01-02T01:24:00Z,28.4330,-82.6670,-0.217,1111122 
COMPS,ioos:station:USF.COMPS:ARP:1,2013-01-02T01:30:00Z,28.4330,-82.6670,-0.231,1111122 
COMPS,ioos:station:USF.COMPS:ARP:1,2013-01-02T01:36:00Z,28.4330,-82.6670,-0.24,1111122 
COMPS,ioos:station:USF.COMPS:ARP:1,2013-01-02T01:42:00Z,28.4330,-82.6670,-0.253,1111122 
COMPS,ioos:station:USF.COMPS:ARP:1,2013-01-02T01:48:00Z,28.4330,-82.6670,-0.264,1111122 
COMPS,ioos:station:USF.COMPS:ARP:1,2013-01-02T01:54:00Z,28.4330,-82.6670,-0.278,1111122 
COMPS,ioos:station:USF.COMPS:ARP:1,2013-01-02T02:00:00Z,28.4330,-82.6670,-0.29,1111122 
COMPS,ioos:station:USF.COMPS:ARP:1,2013-01-02T02:06:00Z,28.4330,-82.6670,-0.301,1111122 
COMPS,ioos:station:USF.COMPS:ARP:1,2013-01-02T02:12:00Z,28.4330,-82.6670,-0.312,1111122 
COMPS,ioos:station:USF.COMPS:ARP:1,2013-01-02T02:18:00Z,28.4330,-82.6670,-0.324,1111122 
COMPS,ioos:station:USF.COMPS:ARP:1,2013-01-02T02:24:00Z,28.4330,-82.6670,-0.333,1111122 
COMPS,ioos:station:USF.COMPS:ARP:1,2013-01-02T02:30:00Z,28.4330,-82.6670,-0.34,1111122 
COMPS,ioos:station:USF.COMPS:ARP:1,2013-01-02T02:36:00Z,28.4330,-82.6670,-0.346,1111122 
COMPS,ioos:station:USF.COMPS:ARP:1,2013-01-02T02:42:00Z,28.4330,-82.6670,-0.352,1111122 
COMPS,ioos:station:USF.COMPS:ARP:1,2013-01-02T02:48:00Z,28.4330,-82.6670,-0.355,1111122 
COMPS,ioos:station:USF.COMPS:ARP:1,2013-01-02T02:54:00Z,28.4330,-82.6670,-0.36,1111122 